Orbital Elements at Epoch 2459200.5 (2020-Dec-17.0) TDB
Reference: JPL 13 (heliocentric ecliptic J2000)
Element | Value | Uncertainty (1-sigma) | Units |
e | .1537588371196698 | 3.693e-08 | |
a | 2.253321460231576 | 1.0024e-08 | au |
q | 1.906853372849572 | 8.7508e-08 | au |
i | 3.468865408640528 | 4.0294e-06 | deg |
node | 343.767555921427 | 7.3276e-05 | deg |
peri | 129.293176643994 | 7.5751e-05 | deg |
M | 324.4898285976004 | 1.6659e-05 | deg |
tp | 2459322.366243408160 (2021-Apr-17.86624341) | 5.7117e-05 | TDB |
period | 1235.472708080848 3.38 | 8.2445e-06 2.257e-08 | d yr |
n | .2913864447553964 | 1.9445e-09 | deg/d |
Q | 2.59978954761358 | 1.1566e-08 | au |
|
| | Orbit Determination Parameters
Additional Information
|